Location: Kawakawa
(35.3830°S, 174.0670°E)
Time: 19:16:05
(UTC+13:00)

Explorer 7 - Pass Details

Date: 11 December 2019
Orbit: 485 x 679 km, 50.3° (Epoch: 22 January)

Event Time Altitude Azimuth Distance (km) Brightness Sun altitude
Rises 09:41:26 0° 220° (SW) 2,588 10.0 42.0°
Reaches altitude 10° 09:44:27 10° 194° (SSW) 1,720 9.3 42.6°
Maximum altitude 09:46:38 14° 160° (SSE) 1,479 9.4 43.1°
Drops below altitude 10° 09:48:51 10° 126° (SE) 1,753 10.1 43.5°
Sets 09:52:00 0° 100° (E) 2,675 11.1 44.2°
